Gulfport, MS Weather Center

Moon Phase Calendar



Online Cameras

 


      

Current Conditions in Gulfport
6/28/2022 2:16:37 PM

90°F
Feels Like 101
Clouds
Humidity
62%
Pressure
30.03"
Wind
10.4 mph (S)
Dew Point
75°F
UV Index
8/10 (Very High)
Visibility
6 mi

Hourly Forecast

Date & Time Tue, Jun 28
2:00 PM
Tue, Jun 28
3:00 PM
Tue, Jun 28
4:00 PM
Tue, Jun 28
5:00 PM
Tue, Jun 28
6:00 PM
Tue, Jun 28
7:00 PM
Tue, Jun 28
8:00 PM
Tue, Jun 28
9:00 PM
Tue, Jun 28
10:00 PM
Tue, Jun 28
11:00 PM
Wed, Jun 29
12:00 AM
Wed, Jun 29
1:00 AM
Wed, Jun 29
2:00 AM
Wed, Jun 29
3:00 AM
Wed, Jun 29
4:00 AM
Wed, Jun 29
5:00 AM
Wed, Jun 29
6:00 AM
Wed, Jun 29
7:00 AM
Wed, Jun 29
8:00 AM
Wed, Jun 29
9:00 AM
Wed, Jun 29
10:00 AM
Wed, Jun 29
11:00 AM
Wed, Jun 29
12:00 PM
Wed, Jun 29
1:00 PM
Wed, Jun 29
2:00 PM
Wed, Jun 29
3:00 PM
Wed, Jun 29
4:00 PM
Wed, Jun 29
5:00 PM
Wed, Jun 29
6:00 PM
Wed, Jun 29
7:00 PM
Wed, Jun 29
8:00 PM
Wed, Jun 29
9:00 PM
Wed, Jun 29
10:00 PM
Wed, Jun 29
11:00 PM
Thu, Jun 30
12:00 AM
Thu, Jun 30
1:00 AM
Thu, Jun 30
2:00 AM
Thu, Jun 30
3:00 AM
Thu, Jun 30
4:00 AM
Thu, Jun 30
5:00 AM
Thu, Jun 30
6:00 AM
Thu, Jun 30
7:00 AM
Thu, Jun 30
8:00 AM
Thu, Jun 30
9:00 AM
Thu, Jun 30
10:00 AM
Thu, Jun 30
11:00 AM
Thu, Jun 30
12:00 PM
Thu, Jun 30
1:00 PM
Condition
Clouds

Clouds

Clouds

Clouds

Clouds

Rain

Rain

Rain

Rain

Clouds

Clouds

Clouds

Clouds

Clouds

Rain

Rain

Rain

Rain

Rain

Rain

Rain

Clouds

Clouds

Rain

Clouds

Clouds

Clouds

Clouds

Clouds

Clouds

Clouds

Clouds

Clouds

Clouds

Rain

Rain

Rain

Rain

Rain

Rain

Rain

Rain

Rain

Rain

Rain

Rain

Rain

Rain
Temperature 90°F90°F89°F88°F87°F84°F81°F78°F77°F77°F77°F78°F78°F78°F78°F78°F78°F78°F79°F79°F80°F82°F85°F86°F87°F87°F87°F86°F86°F84°F82°F82°F82°F81°F80°F80°F79°F79°F80°F80°F80°F80°F81°F82°F82°F83°F81°F81°F
Feels Like 101°F100°F97°F96°F94°F90°F85°F80°F78°F78°F78°F79°F79°F79°F79°F79°F79°F80°F79°F79°F80°F88°F92°F93°F94°F94°F94°F93°F92°F91°F88°F87°F87°F87°F85°F80°F79°F79°F80°F80°F80°F85°F86°F88°F89°F90°F87°F86°F
Cloudiness 20%20%22%22%22%23%97%97%98%98%95%95%100%100%100%98%98%98%99%99%99%99%98%97%83%78%69%63%55%48%57%58%65%54%56%53%43%64%76%82%85%88%99%98%99%99%99%99%
Visibility 6 mi6 mi6 mi6 mi6 mi6 mi6 mi6 mi6 mi6 mi6 mi6 mi6 mi6 mi6 mi6 mi6 mi6 mi6 mi6 mi6 mi6 mi6 mi6 mi6 mi6 mi6 mi6 mi6 mi6 mi6 mi6 mi6 mi6 mi6 mi6 mi6 mi6 mi6 mi6 mi6 mi6 mi6 mi6 mi6 mi6 mi6 mi6 mi
Precipitation 14%14%16%15%23%35%48%51%65%67%67%62%16%35%47%60%64%76%65%67%72%68%68%68%0%0%0%0%0%2%22%23%23%25%59%91%70%68%65%68%78%80%95%95%98%100%100%100%
Humidity 62%61%60%60%62%67%75%83%86%87%86%85%85%86%86%86%84%83%84%85%84%78%70%65%62%61%62%64%65%70%74%75%76%77%82%84%85%84%84%84%84%84%83%81%80%78%80%81%
Dew Point 75°F75°F73°F73°F72°F72°F72°F72°F72°F72°F72°F72°F73°F73°F73°F73°F72°F73°F73°F74°F74°F74°F73°F73°F72°F72°F72°F73°F73°F73°F73°F73°F73°F73°F74°F74°F74°F74°F74°F74°F74°F74°F75°F75°F75°F75°F74°F74°F
Pressure 30.03"30.03"30.03"30"30"30.03"30.03"30.03"30.06"30.03"30.03"30.03"30.03"30.03"30.03"30.03"30.06"30.06"30.09"30.09"30.12"30.12"30.12"30.12"30.09"30.09"30.06"30.06"30.06"30.06"30.09"30.09"30.09"30.09"30.12"30.09"30.09"30.06"30.06"30.06"30.06"30.09"30.09"30.12"30.12"30.12"30.12"30.09"
Wind Speed 9.6 mph11.8 mph12.9 mph12.1 mph8.7 mph4.6 mph2.3 mph3.1 mph5.9 mph5.3 mph5.6 mph5.6 mph5.2 mph5.3 mph5.2 mph4.9 mph3.4 mph2.8 mph4.1 mph5.9 mph7.1 mph7.2 mph6.6 mph7.1 mph7.9 mph8.6 mph9.5 mph10.7 mph8.1 mph9.1 mph7.6 mph7.5 mph8.2 mph7.6 mph7.4 mph7.1 mph7.2 mph7.4 mph6.6 mph6.3 mph5.8 mph5.5 mph5.6 mph6.2 mph5.9 mph6.2 mph7 mph8 mph
Wind
Direction
140°
SE
148°
SSE
149°
SSE
145°
SE
154°
SSE
174°
S
281°
W
340°
NNW

N
17°
NNE
51°
NE
71°
ENE
70°
ENE
60°
ENE
68°
ENE
83°
E
82°
E
75°
ENE
55°
NE
45°
NE
55°
NE
71°
ENE
96°
E
120°
ESE
132°
SE
136°
SE
137°
SE
136°
SE
139°
SE
146°
SE
144°
SE
143°
SE
139°
SE
140°
SE
133°
SE
142°
SE
139°
SE
143°
SE
146°
SE
145°
SE
144°
SE
148°
SSE
150°
SSE
153°
SSE
141°
SE
133°
SE
124°
SE
116°
ESE

Daily Forecast

Date High Low Precip. Humidity
Today
Jun 28

Rain
90 °F
75 °F
67%
60%
Wednesday
Jun 29

Rain
87 °F
77 °F
76%
70%
Thursday
Jun 30

Rain
82 °F
79 °F
100%
81%
Friday
Jul 1

Rain
86 °F
78 °F
100%
64%
Saturday
Jul 2

Rain
87 °F
77 °F
80%
70%
Sunday
Jul 3

Rain
85 °F
79 °F
100%
69%
Monday
Jul 4

Rain
88 °F
79 °F
93%
61%
Tuesday
Jul 5

Clouds
88 °F
80 °F
15%
61%
Wednesday
Jul 6

Clear
88 °F
80 °F
9%
62%
Thursday
Jul 7

Rain
85 °F
77 °F
96%
70%
Friday
Jul 8

Rain
87 °F
75 °F
31%
65%
Saturday
Jul 9

Rain
88 °F
79 °F
46%
60%
Sunday
Jul 10

Rain
91 °F
79 °F
62%
55%
Monday
Jul 11

Rain
91 °F
80 °F
78%
58%
Tuesday
Jul 12

Rain
88 °F
77 °F
99%
61%
Wednesday
Jul 13

Rain
83 °F
78 °F
98%
74%

Temperature 8-14 Day Outlook



Precipitation 8-14 Day Outlook




Quick Links
Gulfport, MS News
Gulfport, MS Photos
Gulfport, MS Videos




About Us
Contact Us
Site Map
Search Site
Advertise With Us
   
Gulfport.CoastalTown.com
THE GULFPORT, MS WEBSITE

Copyright 2022, Coastal Town
Privacy    |    Legal